User: anonymous   Login
Location: Caltech
(34.1382°N, 118.1253°W)
Time: 07:28:43
(UTC-07:00)
Language:

AO-27 - Orbit

View from above orbital plane
View from above orbital plane
View from above satellite
View from above satellite

Ground track
Ground track

The orbit data is extracted from the following two-line orbital elements,

1 22825U 93061C   15148.95847317  .00000061  00000-0  41001-4 0  9998
2 22825 098.7072 099.0638 0008686 013.0865 030.8150 14.29880673130199
Epoch (UTC): 28 May 2015 23:00:12
Eccentricity: 0.0008686
inclination: 98.7072°
perigee height: 786 km
apogee height: 798 km
right ascension of ascending node: 99.0638°
argument of perigee: 13.0865°
revolutions per day: 14.29880673
mean anomaly at epoch: 30.8150°
orbit number at epoch: 13019

The dashed part of the orbit path shows where the satellite is in the earth's shadow,  

DLR